Time,TemperatureF,DewpointF,PressureIn,WindDirection,WindDirectionDegrees,WindSpeedMPH,WindSpeedGustMPH,Humidity,HourlyPrecipIn,Conditions,Clouds,dailyrainin,SoftwareType,DateUTC
2013-05-01 00:01:00,37.0,33.2,30.51,South,188,0.0,0.0,86,0.00,,,0.18,Wunderground v.1.15,2013-05-01 07:01:00,
2013-05-01 00:11:00,36.9,33.4,30.51,South,188,0.0,0.0,87,0.00,,,0.00,Wunderground v.1.15,2013-05-01 07:11:00,
2013-05-01 00:21:00,36.6,33.4,30.52,South,188,0.0,0.0,88,0.00,,,0.00,Wunderground v.1.15,2013-05-01 07:21:00,
2013-05-01 00:31:00,36.3,33.1,30.52,South,188,0.0,0.0,88,0.00,,,0.00,Wunderground v.1.15,2013-05-01 07:31:00,
2013-05-01 00:41:00,36.2,33.0,30.53,South,188,0.0,0.0,88,0.00,,,0.00,Wunderground v.1.15,2013-05-01 07:41:00,
2013-05-01 00:46:00,36.0,32.8,30.53,South,188,0.0,0.0,88,0.00,,,0.00,Wunderground v.1.15,2013-05-01 07:46:00,
2013-05-01 00:56:00,35.9,33.0,30.53,South,188,0.0,0.0,89,0.00,,,0.00,Wunderground v.1.15,2013-05-01 07:56:00,
2013-05-01 01:01:00,35.8,32.9,30.53,South,188,0.0,0.0,89,0.00,,,0.00,Wunderground v.1.15,2013-05-01 08:01:00,
2013-05-01 01:11:00,35.6,32.7,30.54,South,188,0.0,0.0,89,0.00,,,0.00,Wunderground v.1.15,2013-05-01 08:11:00,
2013-05-01 01:21:00,35.3,32.4,30.54,South,188,0.0,0.0,89,0.00,,,0.00,Wunderground v.1.15,2013-05-01 08:21:00,
2013-05-01 01:31:00,35.3,32.7,30.55,South,188,0.0,0.0,90,0.00,,,0.00,Wunderground v.1.15,2013-05-01 08:31:00,
2013-05-01 01:36:00,35.2,32.8,30.55,South,188,0.0,0.0,91,0.00,,,0.00,Wunderground v.1.15,2013-05-01 08:36:00,
2013-05-01 01:46:00,35.0,32.6,30.55,South,188,0.0,0.0,91,0.00,,,0.00,Wunderground v.1.15,2013-05-01 08:46:00,
2013-05-01 01:56:00,34.9,32.5,30.56,South,188,0.0,0.0,91,0.00,,,0.00,Wunderground v.1.15,2013-05-01 08:56:00,
2013-05-01 02:11:00,34.7,32.6,30.56,South,188,0.0,0.0,92,0.00,,,0.00,Wunderground v.1.15,2013-05-01 09:11:00,
2013-05-01 02:16:00,34.6,32.5,30.56,South,188,0.0,0.0,92,0.00,,,0.00,Wunderground v.1.15,2013-05-01 09:16:00,
2013-05-01 02:26:00,34.6,32.5,30.56,South,188,0.0,0.0,92,0.00,,,0.00,Wunderground v.1.15,2013-05-01 09:26:00,
2013-05-01 02:36:00,34.3,32.2,30.57,South,188,0.0,0.0,92,0.00,,,0.00,Wunderground v.1.15,2013-05-01 09:36:00,
2013-05-01 02:46:00,34.1,32.0,30.57,South,189,0.0,1.0,92,0.00,,,0.00,Wunderground v.1.15,2013-05-01 09:46:00,
2013-05-01 02:56:00,34.0,31.9,30.57,South,189,0.0,0.0,92,0.00,,,0.00,Wunderground v.1.15,2013-05-01 09:56:00,
2013-05-01 03:11:00,33.7,31.6,30.57,South,189,0.0,0.0,92,0.00,,,0.00,Wunderground v.1.15,2013-05-01 10:11:00,
2013-05-01 03:16:00,33.5,31.4,30.57,South,189,0.0,0.0,92,0.00,,,0.00,Wunderground v.1.15,2013-05-01 10:16:00,
2013-05-01 03:26:00,33.4,31.3,30.57,South,189,0.0,0.0,92,0.00,,,0.00,Wunderground v.1.15,2013-05-01 10:26:00,
2013-05-01 03:31:00,33.2,31.1,30.57,South,189,0.0,0.0,92,0.00,,,0.00,Wunderground v.1.15,2013-05-01 10:31:00,
2013-05-01 03:41:00,33.1,31.0,30.57,South,189,0.0,0.0,92,0.00,,,0.00,Wunderground v.1.15,2013-05-01 10:41:00,
2013-05-01 03:51:00,32.9,30.8,30.57,South,189,0.0,0.0,92,0.00,,,0.00,Wunderground v.1.15,2013-05-01 10:51:00,
2013-05-01 04:01:00,32.7,30.6,30.57,South,189,0.0,0.0,92,0.00,,,0.00,Wunderground v.1.15,2013-05-01 11:01:00,
2013-05-01 04:06:00,32.7,30.6,30.58,South,189,0.0,0.0,92,0.00,,,0.00,Wunderground v.1.15,2013-05-01 11:06:00,
2013-05-01 04:16:00,32.5,30.7,30.58,South,189,0.0,0.0,93,0.00,,,0.00,Wunderground v.1.15,2013-05-01 11:16:00,
2013-05-01 04:21:00,32.5,30.7,30.58,South,189,0.0,0.0,93,0.00,,,0.00,Wunderground v.1.15,2013-05-01 11:21:00,
2013-05-01 04:31:00,32.5,30.7,30.58,South,189,0.0,0.0,93,0.00,,,0.00,Wunderground v.1.15,2013-05-01 11:31:00,
2013-05-01 04:36:00,32.4,30.6,30.59,South,189,0.0,0.0,93,0.00,,,0.00,Wunderground v.1.15,2013-05-01 11:36:00,
2013-05-01 04:46:00,32.2,30.4,30.59,South,189,0.0,0.0,93,0.00,,,0.00,Wunderground v.1.15,2013-05-01 11:46:00,
2013-05-01 04:56:00,32.2,30.4,30.59,South,189,0.0,0.0,93,0.00,,,0.00,Wunderground v.1.15,2013-05-01 11:56:00,
2013-05-01 05:11:00,32.2,30.4,30.59,South,189,0.0,0.0,93,0.00,,,0.00,Wunderground v.1.15,2013-05-01 12:11:00,
2013-05-01 05:21:00,32.1,30.3,30.60,South,189,0.0,0.0,93,0.00,,,0.00,Wunderground v.1.15,2013-05-01 12:21:00,
2013-05-01 05:31:00,31.9,30.1,30.60,South,189,0.0,0.0,93,0.00,,,0.00,Wunderground v.1.15,2013-05-01 12:31:00,
2013-05-01 05:36:00,31.8,30.0,30.60,South,189,0.0,0.0,93,0.00,,,0.00,Wunderground v.1.15,2013-05-01 12:36:00,
2013-05-01 05:46:00,31.6,29.8,30.60,South,189,0.0,0.0,93,0.00,,,0.00,Wunderground v.1.15,2013-05-01 12:46:00,
2013-05-01 05:56:00,31.5,29.7,30.61,South,189,0.0,0.0,93,0.00,,,0.00,Wunderground v.1.15,2013-05-01 12:56:00,
2013-05-01 06:11:00,31.5,30.0,30.61,South,189,0.0,0.0,94,0.00,,,0.00,Wunderground v.1.15,2013-05-01 13:11:00,
2013-05-01 06:21:00,31.5,30.0,30.62,South,189,0.0,0.0,94,0.00,,,0.00,Wunderground v.1.15,2013-05-01 13:21:00,
2013-05-01 06:31:00,31.5,30.0,30.62,South,189,0.0,0.0,94,0.00,,,0.00,Wunderground v.1.15,2013-05-01 13:31:00,
2013-05-01 06:41:00,31.6,30.1,30.62,South,189,0.0,0.0,94,0.00,,,0.00,Wunderground v.1.15,2013-05-01 13:41:00,
2013-05-01 06:51:00,31.6,30.1,30.63,South,189,0.0,0.0,94,0.00,,,0.00,Wunderground v.1.15,2013-05-01 13:51:00,
2013-05-01 06:56:00,31.8,30.8,30.63,South,191,0.0,0.0,96,0.00,,,0.00,Wunderground v.1.15,2013-05-01 13:56:00,
2013-05-01 07:06:00,31.8,30.8,30.63,South,189,0.0,0.0,96,0.00,,,0.00,Wunderground v.1.15,2013-05-01 14:06:00,
2013-05-01 07:16:00,31.9,30.6,30.63,South,189,0.0,0.0,95,0.00,,,0.00,Wunderground v.1.15,2013-05-01 14:16:00,
2013-05-01 07:21:00,32.2,30.9,30.64,South,189,0.0,0.0,95,0.00,,,0.00,Wunderground v.1.15,2013-05-01 14:21:00,
2013-05-01 07:31:00,32.5,31.5,30.64,South,191,0.0,0.0,96,0.00,,,0.00,Wunderground v.1.15,2013-05-01 14:31:00,
2013-05-01 07:36:00,32.8,31.8,30.65,South,189,0.0,0.0,96,0.00,,,0.00,Wunderground v.1.15,2013-05-01 14:36:00,
2013-05-01 07:46:00,33.5,32.5,30.65,South,189,0.0,0.0,96,0.00,,,0.00,Wunderground v.1.15,2013-05-01 14:46:00,
2013-05-01 07:56:00,34.7,33.9,30.64,South,189,0.0,0.0,97,0.00,,,0.00,Wunderground v.1.15,2013-05-01 14:56:00,
2013-05-01 08:11:00,36.5,35.7,30.64,South,191,0.0,0.0,97,0.00,,,0.00,Wunderground v.1.15,2013-05-01 15:11:00,
2013-05-01 08:16:00,37.0,36.2,30.64,SSW,192,0.0,0.0,97,0.00,,,0.00,Wunderground v.1.15,2013-05-01 15:16:00,
2013-05-01 08:26:00,37.9,37.1,30.65,NW,316,0.0,2.0,97,0.00,,,0.00,Wunderground v.1.15,2013-05-01 15:26:00,
2013-05-01 08:31:00,38.5,37.5,30.64,NW,311,1.0,1.0,96,0.00,,,0.00,Wunderground v.1.15,2013-05-01 15:31:00,
2013-05-01 08:41:00,40.1,36.0,30.64,SW,229,0.0,0.0,85,0.00,,,0.00,Wunderground v.1.15,2013-05-01 15:41:00,
2013-05-01 08:51:00,41.8,36.7,30.65,SSE,168,0.0,0.0,82,0.00,,,0.00,Wunderground v.1.15,2013-05-01 15:51:00,
2013-05-01 09:01:00,43.2,36.5,30.65,South,178,0.0,0.0,77,0.00,,,0.00,Wunderground v.1.15,2013-05-01 16:01:00,
2013-05-01 09:11:00,44.5,37.7,30.65,SSE,148,0.0,0.0,77,0.00,,,0.00,Wunderground v.1.15,2013-05-01 16:11:00,
2013-05-01 09:21:00,45.5,37.3,30.64,SW,233,0.0,1.0,73,0.00,,,0.00,Wunderground v.1.15,2013-05-01 16:21:00,
2013-05-01 09:31:00,46.1,37.2,30.64,SSW,203,0.0,4.0,71,0.00,,,0.00,Wunderground v.1.15,2013-05-01 16:31:00,
2013-05-01 09:41:00,47.3,39.1,30.64,SE,144,0.0,0.0,73,0.00,,,0.00,Wunderground v.1.15,2013-05-01 16:41:00,
2013-05-01 09:51:00,48.2,37.8,30.64,West,263,1.0,1.0,67,0.00,,,0.00,Wunderground v.1.15,2013-05-01 16:51:00,
2013-05-01 09:56:00,48.3,37.1,30.64,West,265,0.0,1.0,65,0.00,,,0.00,Wunderground v.1.15,2013-05-01 16:56:00,
2013-05-01 10:11:00,49.6,37.5,30.64,SSE,151,0.0,0.0,63,0.00,,,0.00,Wunderground v.1.15,2013-05-01 17:11:00,
2013-05-01 10:21:00,50.5,37.5,30.64,SW,232,0.0,0.0,61,0.00,,,0.00,Wunderground v.1.15,2013-05-01 17:21:00,
2013-05-01 10:26:00,51.1,38.1,30.64,South,181,0.0,0.0,61,0.00,,,0.00,Wunderground v.1.15,2013-05-01 17:26:00,
2013-05-01 10:36:00,51.9,37.6,30.64,SE,127,0.0,0.0,58,0.00,,,0.00,Wunderground v.1.15,2013-05-01 17:36:00,
2013-05-01 10:46:00,52.8,38.4,30.64,West,281,0.0,0.0,58,0.00,,,0.00,Wunderground v.1.15,2013-05-01 17:46:00,
2013-05-01 10:51:00,52.9,38.1,30.64,SW,217,0.0,0.0,57,0.00,,,0.00,Wunderground v.1.15,2013-05-01 17:51:00,
2013-05-01 11:01:00,53.6,38.3,30.64,WNW,282,0.0,0.0,56,0.00,,,0.00,Wunderground v.1.15,2013-05-01 18:01:00,
2013-05-01 11:11:00,54.1,36.9,30.64,SSE,167,0.0,0.0,52,0.00,,,0.00,Wunderground v.1.15,2013-05-01 18:11:00,
2013-05-01 11:21:00,54.7,35.9,30.65,ESE,120,0.0,0.0,49,0.00,,,0.00,Wunderground v.1.15,2013-05-01 18:21:00,
2013-05-01 11:31:00,55.7,36.8,30.65,SE,134,0.0,1.0,49,0.00,,,0.00,Wunderground v.1.15,2013-05-01 18:31:00,
2013-05-01 11:36:00,56.2,37.8,30.64,NNW,347,0.0,1.0,50,0.00,,,0.00,Wunderground v.1.15,2013-05-01 18:36:00,
2013-05-01 11:46:00,57.0,38.5,30.64,North,359,0.0,2.0,50,0.00,,,0.00,Wunderground v.1.15,2013-05-01 18:46:00,
2013-05-01 11:56:00,57.8,38.2,30.63,WNW,285,1.0,2.0,48,0.00,,,0.00,Wunderground v.1.15,2013-05-01 18:56:00,
2013-05-01 12:11:00,58.7,31.8,30.63,WNW,282,1.0,1.0,36,0.00,,,0.00,Wunderground v.1.15,2013-05-01 19:11:00,
2013-05-01 12:21:00,59.0,31.4,30.63,SW,219,2.0,2.0,35,0.00,,,0.00,Wunderground v.1.15,2013-05-01 19:21:00,
2013-05-01 12:31:00,59.6,33.9,30.63,SSE,150,2.0,4.0,38,0.00,,,0.00,Wunderground v.1.15,2013-05-01 19:31:00,
2013-05-01 12:36:00,59.0,33.4,30.63,SSE,157,2.0,4.0,38,0.00,,,0.00,Wunderground v.1.15,2013-05-01 19:36:00,
2013-05-01 12:46:00,59.3,35.6,30.63,SSW,203,1.0,1.0,41,0.00,,,0.00,Wunderground v.1.15,2013-05-01 19:46:00,
2013-05-01 12:56:00,59.9,31.4,30.62,East,90,1.0,2.0,34,0.00,,,0.00,Wunderground v.1.15,2013-05-01 19:56:00,
2013-05-01 13:11:00,60.9,32.3,30.62,SW,234,1.0,7.0,34,0.00,,,0.00,Wunderground v.1.15,2013-05-01 20:11:00,
2013-05-01 13:16:00,60.7,32.1,30.62,West,263,2.0,7.0,34,0.00,,,0.00,Wunderground v.1.15,2013-05-01 20:16:00,
2013-05-01 13:21:00,61.0,35.8,30.62,SSE,158,2.0,2.0,39,0.00,,,0.00,Wunderground v.1.15,2013-05-01 20:21:00,
2013-05-01 13:31:00,62.1,36.2,30.62,NNW,329,1.0,1.0,38,0.00,,,0.00,Wunderground v.1.15,2013-05-01 20:31:00,
2013-05-01 13:36:00,61.8,34.5,30.62,SW,223,1.0,1.0,36,0.00,,,0.00,Wunderground v.1.15,2013-05-01 20:36:00,
2013-05-01 13:46:00,61.8,35.2,30.62,WSW,247,1.0,2.0,37,0.00,,,0.00,Wunderground v.1.15,2013-05-01 20:46:00,
2013-05-01 13:51:00,62.3,37.0,30.62,SSE,152,1.0,1.0,39,0.00,,,0.00,Wunderground v.1.15,2013-05-01 20:51:00,
2013-05-01 14:01:00,62.6,33.8,30.62,ESE,121,2.0,2.0,34,0.00,,,0.00,Wunderground v.1.15,2013-05-01 21:01:00,
2013-05-01 14:11:00,62.7,38.6,30.62,SSW,195,1.0,1.0,41,0.00,,,0.00,Wunderground v.1.15,2013-05-01 21:11:00,
2013-05-01 14:16:00,62.7,34.6,30.62,SSW,198,2.0,2.0,35,0.00,,,0.00,Wunderground v.1.15,2013-05-01 21:16:00,
2013-05-01 14:21:00,62.6,31.5,30.62,SSE,167,2.0,2.0,31,0.00,,,0.00,Wunderground v.1.15,2013-05-01 21:21:00,
2013-05-01 14:31:00,62.9,31.0,30.62,ESE,121,2.0,6.0,30,0.00,,,0.00,Wunderground v.1.15,2013-05-01 21:31:00,
2013-05-01 14:41:00,63.9,32.6,30.61,NNW,330,1.0,1.0,31,0.00,,,0.00,Wunderground v.1.15,2013-05-01 21:41:00,
2013-05-01 14:51:00,64.2,36.0,30.61,ESE,123,1.0,2.0,35,0.00,,,0.00,Wunderground v.1.15,2013-05-01 21:51:00,
2013-05-01 15:01:00,64.5,31.5,30.61,SE,130,2.0,2.0,29,0.00,,,0.00,Wunderground v.1.15,2013-05-01 22:01:00,
2013-05-01 15:11:00,64.2,32.9,30.61,WSW,248,2.0,4.0,31,0.00,,,0.00,Wunderground v.1.15,2013-05-01 22:11:00,
2013-05-01 15:16:00,64.3,35.3,30.61,South,184,1.0,4.0,34,0.00,,,0.00,Wunderground v.1.15,2013-05-01 22:16:00,
2013-05-01 15:26:00,64.7,35.7,30.60,NW,306,1.0,1.0,34,0.00,,,0.00,Wunderground v.1.15,2013-05-01 22:26:00,
2013-05-01 15:36:00,64.5,36.9,30.60,SW,236,1.0,1.0,36,0.00,,,0.00,Wunderground v.1.15,2013-05-01 22:36:00,
2013-05-01 15:46:00,65.2,33.0,30.60,West,271,1.0,4.0,30,0.00,,,0.00,Wunderground v.1.15,2013-05-01 22:46:00,
2013-05-01 15:51:00,65.5,34.8,30.60,SE,145,1.0,2.0,32,0.00,,,0.00,Wunderground v.1.15,2013-05-01 22:51:00,
2013-05-01 16:01:00,66.3,34.7,30.60,West,264,2.0,6.0,31,0.00,,,0.00,Wunderground v.1.15,2013-05-01 23:01:00,
2013-05-01 16:11:00,66.0,34.5,30.60,South,169,2.0,2.0,31,0.00,,,0.00,Wunderground v.1.15,2013-05-01 23:11:00,
2013-05-01 16:16:00,66.1,35.4,30.60,SSW,198,1.0,2.0,32,0.00,,,0.00,Wunderground v.1.15,2013-05-01 23:16:00,
2013-05-01 16:26:00,65.6,37.2,30.60,SE,145,2.0,2.0,35,0.00,,,0.00,Wunderground v.1.15,2013-05-01 23:26:00,
2013-05-01 16:36:00,65.3,36.9,30.59,SSW,192,1.0,2.0,35,0.00,,,0.00,Wunderground v.1.15,2013-05-01 23:36:00,
2013-05-01 16:46:00,65.5,34.8,30.59,WSW,253,2.0,2.0,32,0.00,,,0.00,Wunderground v.1.15,2013-05-01 23:46:00,
2013-05-01 16:51:00,65.6,35.7,30.59,SW,223,1.0,1.0,33,0.00,,,0.00,Wunderground v.1.15,2013-05-01 23:51:00,
2013-05-01 16:56:00,65.6,34.1,30.59,WSW,248,1.0,2.0,31,0.00,,,0.00,Wunderground v.1.15,2013-05-01 23:56:00,
2013-05-01 17:11:00,64.8,34.2,30.59,SW,220,2.0,2.0,32,0.00,,,0.00,Wunderground v.1.15,2013-05-02 00:11:00,
2013-05-01 17:21:00,64.8,32.6,30.59,WSW,246,1.0,1.0,30,0.00,,,0.00,Wunderground v.1.15,2013-05-02 00:21:00,
2013-05-01 17:31:00,64.5,33.2,30.58,WSW,240,2.0,2.0,31,0.00,,,0.00,Wunderground v.1.15,2013-05-02 00:31:00,
2013-05-01 17:36:00,64.2,33.7,30.58,SW,232,3.0,3.0,32,0.00,,,0.00,Wunderground v.1.15,2013-05-02 00:36:00,
2013-05-01 17:46:00,63.1,32.7,30.58,WSW,251,2.0,2.0,32,0.00,,,0.00,Wunderground v.1.15,2013-05-02 00:46:00,
2013-05-01 17:56:00,62.7,34.6,30.58,West,261,1.0,2.0,35,0.00,,,0.00,Wunderground v.1.15,2013-05-02 00:56:00,
2013-05-01 18:01:00,62.7,35.3,30.58,West,264,1.0,1.0,36,0.00,,,0.00,Wunderground v.1.15,2013-05-02 01:01:00,
2013-05-01 18:11:00,63.2,34.3,30.59,SW,224,0.0,0.0,34,0.00,,,0.00,Wunderground v.1.15,2013-05-02 01:11:00,
2013-05-01 18:16:00,63.5,33.9,30.59,West,264,0.0,0.0,33,0.00,,,0.00,Wunderground v.1.15,2013-05-02 01:16:00,
2013-05-01 18:26:00,63.2,33.6,30.59,WSW,251,2.0,4.0,33,0.00,,,0.00,Wunderground v.1.15,2013-05-02 01:26:00,
2013-05-01 18:36:00,62.6,34.5,30.58,WSW,239,1.0,2.0,35,0.00,,,0.00,Wunderground v.1.15,2013-05-02 01:36:00,
2013-05-01 18:46:00,62.1,34.1,30.58,West,260,1.0,2.0,35,0.00,,,0.00,Wunderground v.1.15,2013-05-02 01:46:00,
2013-05-01 18:56:00,61.6,35.7,30.58,WSW,244,0.0,2.0,38,0.00,,,0.00,Wunderground v.1.15,2013-05-02 01:56:00,
2013-05-01 19:11:00,60.7,36.8,30.58,WSW,237,0.0,0.0,41,0.00,,,0.00,Wunderground v.1.15,2013-05-02 02:11:00,
2013-05-01 19:21:00,60.2,35.8,30.58,WSW,258,0.0,2.0,40,0.00,,,0.00,Wunderground v.1.15,2013-05-02 02:21:00,
2013-05-01 19:31:00,59.8,36.6,30.58,WSW,246,0.0,0.0,42,0.00,,,0.00,Wunderground v.1.15,2013-05-02 02:31:00,
2013-05-01 19:36:00,59.5,36.4,30.58,WSW,244,0.0,0.0,42,0.00,,,0.00,Wunderground v.1.15,2013-05-02 02:36:00,
2013-05-01 19:46:00,58.9,36.4,30.58,WSW,251,1.0,1.0,43,0.00,,,0.00,Wunderground v.1.15,2013-05-02 02:46:00,
2013-05-01 19:56:00,58.3,37.0,30.59,WSW,247,0.0,0.0,45,0.00,,,0.00,Wunderground v.1.15,2013-05-02 02:56:00,
2013-05-01 20:11:00,57.2,36.0,30.59,SW,232,0.0,0.0,45,0.00,,,0.00,Wunderground v.1.15,2013-05-02 03:11:00,
2013-05-01 20:16:00,56.9,36.9,30.59,SW,232,0.0,0.0,47,0.00,,,0.00,Wunderground v.1.15,2013-05-02 03:16:00,
2013-05-01 20:26:00,56.3,36.3,30.59,WSW,244,0.0,0.0,47,0.00,,,0.00,Wunderground v.1.15,2013-05-02 03:26:00,
2013-05-01 20:36:00,55.9,39.0,30.59,WSW,244,0.0,0.0,53,0.00,,,0.00,Wunderground v.1.15,2013-05-02 03:36:00,
2013-05-01 20:46:00,55.3,39.4,30.59,WSW,244,0.0,0.0,55,0.00,,,0.00,Wunderground v.1.15,2013-05-02 03:46:00,
2013-05-01 20:56:00,54.4,39.5,30.59,WSW,244,0.0,0.0,57,0.00,,,0.00,Wunderground v.1.15,2013-05-02 03:56:00,
2013-05-01 21:01:00,53.9,39.5,30.59,WSW,244,0.0,0.0,58,0.00,,,0.00,Wunderground v.1.15,2013-05-02 04:01:00,
2013-05-01 21:11:00,53.2,38.4,30.59,WSW,244,0.0,0.0,57,0.00,,,0.00,Wunderground v.1.15,2013-05-02 04:11:00,
2013-05-01 21:21:00,52.5,37.7,30.60,WSW,244,0.0,0.0,57,0.00,,,0.00,Wunderground v.1.15,2013-05-02 04:21:00,
2013-05-01 21:26:00,52.2,38.7,30.60,WSW,244,0.0,0.0,60,0.00,,,0.00,Wunderground v.1.15,2013-05-02 04:26:00,
2013-05-01 21:36:00,51.6,37.7,30.60,WSW,244,0.0,0.0,59,0.00,,,0.00,Wunderground v.1.15,2013-05-02 04:36:00,
2013-05-01 21:46:00,51.0,38.0,30.60,WSW,244,0.0,0.0,61,0.00,,,0.00,Wunderground v.1.15,2013-05-02 04:46:00,
2013-05-01 21:51:00,50.5,37.5,30.60,WSW,244,0.0,0.0,61,0.00,,,0.00,Wunderground v.1.15,2013-05-02 04:51:00,
2013-05-01 22:01:00,49.9,37.8,30.60,WSW,244,0.0,0.0,63,0.00,,,0.00,Wunderground v.1.15,2013-05-02 05:01:00,
2013-05-01 22:11:00,49.5,38.6,30.60,WSW,244,0.0,0.0,66,0.00,,,0.00,Wunderground v.1.15,2013-05-02 05:11:00,
2013-05-01 22:21:00,49.1,38.2,30.60,WSW,244,0.0,0.0,66,0.00,,,0.00,Wunderground v.1.15,2013-05-02 05:21:00,
2013-05-01 22:31:00,48.6,38.9,30.60,WSW,244,0.0,0.0,69,0.00,,,0.00,Wunderground v.1.15,2013-05-02 05:31:00,
2013-05-01 22:41:00,48.2,39.2,30.61,WSW,244,0.0,0.0,71,0.00,,,0.00,Wunderground v.1.15,2013-05-02 05:41:00,
2013-05-01 22:51:00,47.7,39.5,30.60,WSW,244,0.0,0.0,73,0.00,,,0.00,Wunderground v.1.15,2013-05-02 05:51:00,
2013-05-01 23:01:00,47.4,39.2,30.60,WSW,244,0.0,0.0,73,0.00,,,0.00,Wunderground v.1.15,2013-05-02 06:01:00,
2013-05-01 23:06:00,47.1,38.9,30.61,WSW,244,0.0,0.0,73,0.00,,,0.00,Wunderground v.1.15,2013-05-02 06:06:00,
2013-05-01 23:16:00,46.8,38.9,30.61,WSW,244,0.0,0.0,74,0.00,,,0.00,Wunderground v.1.15,2013-05-02 06:16:00,
2013-05-01 23:21:00,46.7,38.9,30.60,WSW,244,0.0,0.0,74,0.00,,,0.00,Wunderground v.1.15,2013-05-02 06:21:00,
2013-05-01 23:31:00,46.5,39.7,30.60,WSW,244,0.0,0.0,77,0.00,,,0.00,Wunderground v.1.15,2013-05-02 06:31:00,
2013-05-01 23:41:00,46.2,39.1,30.60,WSW,244,0.0,0.0,76,0.00,,,0.00,Wunderground v.1.15,2013-05-02 06:41:00,
2013-05-01 23:46:00,46.1,39.0,30.60,WSW,244,0.0,0.0,76,0.00,,,0.00,Wunderground v.1.15,2013-05-02 06:46:00,
2013-05-01 23:56:00,46.0,39.5,30.60,WSW,244,0.0,0.0,78,0.00,,,0.00,Wunderground v.1.15,2013-05-02 06:56:00,